Tracking 31023 objects as of 19-Jul-2025
HD Live streaming from Space Station
objects crossing your sky now

STARLINK-5542

Track STARLINK-5542 now!
10-day predictions
STARLINK-5542 is classified as:


NORAD ID: 57075
Int'l Code: 2023-088AD
Perigee: 565.3 km
Apogee: 567.2 km
Inclination: 43.0 °
Period: 95.8 minutes
Semi major axis: 6937 km
RCS: Unknown
Launch date: June 22, 2023
Source: United States (US)
Launch site: AIR FORCE WESTERN TEST RANGE (AFWTR)
Your satellite tracking list
Your tracking list is empty




NASA's NSSDC Master Catalog

Two Line Element Set (TLE):
1 57075U 23088AD  25200.26564635 -.00000002  00000-0  14933-4 0  9998
2 57075  43.0038 283.0920 0001333 274.1241  85.9449 15.02533046115408
Source of the keplerian elements: AFSPC